Location: Cul de Sac
(18.0387°N, 63.0654°W)
Time: 09:36:26
(UTC+00:00)

USA 281 - Pass Details

Date: 29 October 2020
Orbit: 1079 x 1080 km, 106.0° (Epoch: 23 November)

Event Time Altitude Azimuth Distance (km) Brightness Sun altitude
Rises 21:56:28 0° 148° (SSE) 3,863 5.9 -4.4°
Reaches altitude 10° 21:59:02 10° 144° (SE) 2,909 5.3 -5.0°
Maximum altitude 22:05:23 55° 67° (ENE) 1,270 3.3 -6.4°
Drops below altitude 10° 22:11:44 10° 352° (N) 2,913 5.5 -7.9°
Sets 22:14:17 0° 348° (NNW) 3,870 6.1 -8.5°
